[[{"header":{"parameterUnit":"m.s-1","parameterCategory":1,"la1":30.2991,"la2":30.254,"lo1":-89.0895,"lo2":-89.0444,"dy":0.0017,"dx":0.0017,"nx":28,"ny":28,"refTime":"2025-04-17T09:00:00:Z","depth":0,"parameterNumber":2,"parameterNumberName":"U-component_of_WINDS"},"data":[0,0,0,0,0,0,0,0,0,0,0,0,0,0,0,0,0,0,0,0,0,0,0,0,0,0,0,0,0,0,0,0,0,0,0,0,0,0,0,0,0,0,0,0,0,0,0,0,0,0,0,0,0,0,0,0,0,0,-0.7707,-0.7708,0,-0.776,-0.776,-0.7761,-0.778,-0.778,-0.778,-0.7779,-0.7836,-0.7838,-0.7839,0,0,0,0,0,0,0,0,0,0,0,0,0,-0.7627,-0.7628,-0.7707,-0.7708,-0.7709,-0.776,-0.7761,-0.7761,-0.778,-0.778,-0.7779,-0.7779,-0.7835,-0.7837,-0.7839,0,0,0,0,0,0,0,0,0,0,0,0,0,-0.7669,-0.7628,-0.7707,-0.7724,-0.7726,-0.776,-0.7761,-0.7761,-0.778,-0.778,-0.7779,-0.7779,-0.7835,-0.7837,-0.784,-0.7861,0,0,-0.7847,-0.7848,0,0,0,0,0,0,0,0,-0.7666,-0.7672,-0.7721,-0.7723,-0.7725,-0.7763,-0.7753,-0.7795,-0.778,-0.776,-0.7779,-0.7779,-0.7812,-0.7816,-0.7827,-0.7864,-0.7866,-0.7848,-0.7849,-0.785,-0.7851,0,0,0,0,0,0,0,-0.7663,-0.767,-0.7728,-0.7722,-0.7724,-0.773,-0.7736,-0.7761,-0.7787,-0.7761,-0.7763,-0.7769,-0.7813,-0.7825,-0.7829,-0.7867,-0.7848,-0.785,-0.7851,-0.7852,-0.7926,-0.7926,0,0,0,0,0,0,-0.7657,-0.7667,-0.7726,-0.773,-0.7694,-0.7732,-0.7738,-0.7751,-0.7787,-0.7792,-0.7769,-0.7769,-0.782,-0.7826,-0.7831,-0.7859,-0.785,-0.7853,-0.7854,-0.7925,-0.7926,-0.7926,0,0,0,0,0,0,-0.7655,-0.7662,-0.7724,-0.7699,-0.7707,-0.7733,-0.7748,-0.7752,-0.7764,-0.7792,-0.7797,-0.7775,-0.782,-0.7827,-0.7854,-0.7861,-0.7854,-0.7856,-0.7925,-0.7925,-0.7926,-0.7915,0,0,0,0,0,0,-0.7653,-0.7661,-0.7669,-0.7699,-0.7708,-0.7745,-0.7748,-0.7754,-0.7768,-0.7769,-0.78,-0.7805,-0.7821,-0.785,-0.7856,-0.7864,-0.7858,-0.7924,-0.7925,-0.7926,-0.7915,-0.7915,-0.7916,0,0,0,0,0,-0.765,-0.7664,-0.7669,-0.7676,-0.7718,-0.7746,-0.7751,-0.7769,-0.7768,-0.7777,-0.7795,-0.7804,-0.7859,-0.7852,-0.786,-0.7869,-0.7924,-0.7925,-0.7926,-0.7915,-0.7915,-0.7916,0,0,0,0,0,0,-0.7635,-0.7668,-0.7674,-0.7698,-0.7719,-0.7749,-0.776,-0.7768,-0.779,-0.779,-0.7812,-0.7819,-0.7844,-0.7859,-0.7851,-0.7892,-0.7892,-0.7895,-0.7881,-0.7882,-0.7882,-0.7878,-0.786,0,0,0,0,0,-0.7635,-0.7653,-0.7682,-0.77,-0.771,-0.7733,-0.7746,-0.7757,-0.778,-0.7789,-0.781,-0.7832,-0.7855,-0.7869,-0.7891,-0.7917,-0.7925,-0.7927,-0.7928,-0.7928,-0.793,-0.7946,-0.7947,-0.7929,-0.7929,-0.7929,0,0,-0.7634,-0.7654,-0.7665,-0.7698,-0.7715,-0.7735,-0.774,-0.7761,-0.7776,-0.7793,-0.7819,-0.7835,-0.7861,-0.7888,-0.79,-0.7901,-0.7937,-0.7929,-0.7929,-0.7931,-0.7947,-0.7949,-0.795,-0.793,-0.793,-0.793,0,0,-0.7643,-0.766,-0.7677,-0.7695,-0.7721,-0.7736,-0.774,-0.7769,-0.778,-0.7807,-0.7819,-0.7839,-0.7877,-0.7896,-0.791,-0.7927,-0.7936,-0.7934,-0.7936,-0.7951,-0.7953,-0.7954,-0.7961,-0.7963,-0.7936,-0.7936,-0.7936,0,-0.7639,-0.7668,-0.7686,-0.7706,-0.772,-0.7735,-0.7754,-0.777,-0.7803,-0.7813,-0.7813,-0.7862,-0.7881,-0.7913,-0.7917,-0.7928,-0.7935,-0.7931,-0.7951,-0.7952,-0.7954,-0.7961,-0.7963,-0.7935,-0.7935,-0.7936,-0.7936,0,-0.7663,-0.7683,-0.7695,-0.7725,-0.7741,-0.776,-0.7781,-0.7796,-0.7806,-0.7822,-0.785,-0.7873,-0.7901,-0.7909,-0.792,-0.7943,-0.7942,-0.7946,-0.7947,-0.7955,-0.7962,-0.7965,-0.7935,-0.7935,-0.7935,-0.7935,0,0,-0.7664,-0.7703,-0.7707,-0.7721,-0.7752,-0.7768,-0.7789,-0.7816,-0.7828,-0.785,-0.7869,-0.7901,-0.7905,-0.7922,-0.7935,-0.7948,-0.7962,-0.7951,-0.7952,-0.7953,-0.799,-0.7986,-0.7989,-0.7968,-0.7968,-0.7969,-0.7988,0,-0.7677,-0.7713,-0.773,-0.7759,-0.7779,-0.7794,-0.7812,-0.7834,-0.7849,-0.7869,-0.7887,-0.791,-0.7913,-0.7924,-0.7937,-0.7957,-0.7969,-0.7956,-0.7986,-0.7987,-0.7979,-0.7993,-0.7989,-0.8006,-0.799,-0.7991,-0.7991,0,-0.7697,-0.7718,-0.775,-0.7778,-0.7787,-0.7803,-0.7829,-0.7848,-0.7873,-0.7884,-0.7902,-0.7915,-0.7939,-0.7937,-0.7971,-0.7962,-0.7975,-0.7987,-0.7988,-0.7992,-0.799,-0.7997,-0.8012,-0.8014,-0.7995,-0.7995,-0.7995,0,-0.7695,-0.7732,-0.7756,-0.7768,-0.7801,-0.7812,-0.7827,-0.7852,-0.7867,-0.789,-0.7901,-0.7927,-0.7941,-0.7962,-0.7982,-0.7979,-0.8014,-0.8014,-0.8024,-0.8024,-0.8031,-0.803,-0.8048,-0.8039,-0.8039,-0.8039,-0.8039,0,-0.7709,-0.7727,-0.7756,-0.777,-0.7792,-0.7812,-0.7833,-0.7849,-0.7871,-0.789,-0.7905,-0.7923,-0.7948,-0.7969,-0.7985,-0.8012,-0.8018,-0.8028,-0.8032,-0.8027,-0.8026,-0.8036,-0.8036,-0.804,-0.804,-0.8039,-0.8039,0,-0.771,-0.773,-0.7757,-0.7787,-0.7795,-0.781,-0.7836,-0.7851,-0.7868,-0.7892,-0.7899,-0.7925,-0.7951,-0.7973,-0.8007,-0.8018,-0.8045,-0.805,-0.8037,-0.8039,-0.8048,-0.8047,-0.8074,-0.8079,-0.8066,-0.8066,-0.8066,0,-0.7718,-0.7732,-0.7764,-0.7777,-0.7791,-0.7813,-0.7828,-0.7849,-0.7865,-0.7895,-0.7907,-0.7934,-0.7956,-0.7998,-0.8021,-0.8047,-0.8053,-0.806,-0.8057,-0.8052,-0.8054,-0.8053,-0.8055,-0.8061,-0.8061,-0.8061,-0.8061,0,-0.7729,-0.7738,-0.7759,-0.7784,-0.7802,-0.7823,-0.7844,-0.7854,-0.7879,-0.7896,-0.7923,-0.794,-0.7975,-0.8002,-0.8032,-0.8048,-0.8059,-0.8062,-0.8066,-0.8061,-0.8053,-0.8058,-0.8038,-0.8061,-0.8061,-0.8061,-0.8061,-0.8061,-0.7734,-0.7748,-0.7773,-0.7796,-0.7814,-0.7834,-0.785,-0.7869,-0.7891,-0.792,-0.7931,-0.7959,-0.7985,-0.8025,-0.8042,-0.8064,-0.8066,-0.8071,-0.8073,-0.8074,-0.8074,-0.8049,-0.807,-0.807,-0.807,-0.807,-0.807,0,-0.7747,-0.7764,-0.7785,-0.7814,-0.7833,-0.784,-0.7865,-0.788,-0.7904,-0.7926,-0.7948,-0.7979,-0.8006,-0.8031,-0.8059,-0.8072,-0.8078,-0.8079,-0.8079,-0.8083,-0.807,-0.8064,-0.8074,-0.8074,-0.8074,-0.8074,-0.8074,-0.8074,-0.7756,-0.778,-0.7792,-0.7827,-0.7843,-0.7869,-0.7883,-0.7902,-0.792,-0.7954,-0.7975,-0.7991,-0.8016,-0.8046,-0.8071,-0.8078,-0.8088,-0.8088,-0.8096,-0.8084,-0.8083,-0.8083,-0.8077,-0.8089,-0.8089,-0.8106,-0.8107,-0.8107]},{"header":{"parameterUnit":"m.s-1","parameterCategory":1,"la1":30.2991,"la2":30.254,"lo1":-89.0895,"lo2":-89.0444,"dy":0.0017,"dx":0.0017,"nx":28,"ny":28,"refTime":"2025-04-17T09:00:00:Z","depth":0,"parameterNumber":3,"parameterNumberName":"V-component_of_WINDS"},"data":[0,0,0,0,0,0,0,0,0,0,0,0,0,0,0,0,0,0,0,0,0,0,0,0,0,0,0,0,0,0,0,0,0,0,0,0,0,0,0,0,0,0,0,0,0,0,0,0,0,0,0,0,0,0,0,0,0,0,5.9382,5.9383,0,5.9467,5.9468,5.9469,5.9408,5.9406,5.9403,5.94,5.9482,5.9486,5.9491,0,0,0,0,0,0,0,0,0,0,0,0,0,5.9159,5.9163,5.9382,5.9383,5.9384,5.9467,5.9468,5.9469,5.9409,5.9406,5.9402,5.9399,5.948,5.9486,5.9491,0,0,0,0,0,0,0,0,0,0,0,0,0,5.9251,5.9164,5.9382,5.9364,5.9363,5.9467,5.9468,5.947,5.9409,5.9405,5.9401,5.9398,5.9478,5.9485,5.9492,5.9616,0,0,5.9514,5.9517,0,0,0,0,0,0,0,0,5.9246,5.9259,5.9365,5.9365,5.9365,5.9423,5.9419,5.9519,5.9411,5.9392,5.94,5.9396,5.9465,5.9473,5.9498,5.962,5.9623,5.9514,5.9518,5.9521,5.9523,0,0,0,0,0,0,0,5.9239,5.9255,5.9415,5.9367,5.9367,5.9349,5.9358,5.9438,5.945,5.9393,5.9389,5.94,5.9464,5.9491,5.9499,5.9625,5.9514,5.952,5.9525,5.9527,5.9849,5.9853,0,0,0,0,0,0,5.9235,5.925,5.9413,5.9418,5.9294,5.9356,5.9366,5.9408,5.9449,5.9451,5.9403,5.9397,5.9481,5.9491,5.9502,5.9647,5.9521,5.9528,5.9532,5.9845,5.985,5.9855,0,0,0,0,0,0,5.9231,5.9251,5.9409,5.9333,5.9352,5.9365,5.9412,5.9412,5.9439,5.9457,5.9458,5.9429,5.9478,5.9492,5.9588,5.9649,5.9531,5.9537,5.984,5.9847,5.9853,5.9941,0,0,0,0,0,0,5.9225,5.9249,5.9298,5.9335,5.9356,5.9496,5.9416,5.9417,5.9452,5.9444,5.9481,5.9483,5.9476,5.9578,5.9595,5.9657,5.9543,5.9834,5.9843,5.985,5.9932,5.995,5.9964,0,0,0,0,0,5.9217,5.9319,5.9301,5.9321,5.9418,5.95,5.9512,5.9503,5.9457,5.9505,5.9516,5.9482,5.964,5.9588,5.9607,5.9672,5.983,5.984,5.985,5.9925,5.9946,5.9964,0,0,0,0,0,0,5.9288,5.9324,5.9304,5.9422,5.9459,5.949,5.955,5.9526,5.9575,5.9566,5.9551,5.956,5.966,5.9675,5.9617,5.9792,5.9728,5.9742,5.9778,5.9798,5.9814,5.9807,5.9549,0,0,0,0,0,5.9318,5.9384,5.941,5.9511,5.9531,5.9538,5.9573,5.9563,5.96,5.9614,5.9632,5.9668,5.9724,5.9763,5.9816,5.9935,5.994,5.9988,6.0004,6.0017,6.0029,6.009,6.0111,5.9887,5.9887,5.9887,0,0,5.9379,5.9407,5.9449,5.9526,5.9553,5.9619,5.9551,5.9624,5.9672,5.9625,5.9716,5.9731,5.9769,5.9876,5.9924,5.9892,6.0092,6.003,6.004,6.0045,6.0102,6.0123,6.0142,5.9894,5.9893,5.9891,0,0,5.9524,5.9553,5.9639,5.9668,5.9711,5.9715,5.9735,5.977,5.9778,5.9871,5.9836,5.9891,5.9991,6.0019,6.0046,6.02,6.0169,6.0218,6.03,6.036,6.0377,6.0393,6.0445,6.0465,6.023,6.023,6.023,0,5.9594,5.9695,5.9686,5.9761,5.9795,5.9757,5.9842,5.987,5.9928,5.995,5.9914,6.0037,6.006,6.0172,6.021,6.0234,6.0254,6.0213,6.0376,6.0391,6.0406,6.0455,6.0475,6.0235,6.0235,6.0234,6.0234,0,5.9777,5.9847,5.9911,5.9969,6.001,6.009,6.009,6.0132,6.0119,6.0125,6.0218,6.0244,6.0302,6.0328,6.0315,6.0437,6.0415,6.0378,6.0312,6.0433,6.0479,6.0498,6.0243,6.0241,6.024,6.0238,0,0,5.9969,6.0021,6.0045,6.0069,6.0113,6.0166,6.0243,6.0301,6.0336,6.0376,6.0438,6.0523,6.0488,6.0519,6.0508,6.0561,6.0678,6.0517,6.0517,6.0544,6.0811,6.0838,6.086,6.0659,6.0663,6.0666,6.0807,0,6.0115,6.0252,6.0245,6.0372,6.0434,6.0398,6.0465,6.0497,6.0505,6.0557,6.0565,6.0625,6.0576,6.0594,6.0644,6.0653,6.0731,6.0643,6.0714,6.0716,6.0704,6.0885,6.0914,6.1047,6.0826,6.0829,6.0831,0,6.0303,6.0352,6.0485,6.0518,6.0544,6.0604,6.0655,6.0707,6.0742,6.0743,6.0778,6.0758,6.0832,6.0766,6.0867,6.0808,6.0836,6.0845,6.0849,6.0854,6.078,6.0892,6.1089,6.1108,6.086,6.0858,6.0856,0,6.0427,6.0525,6.0617,6.064,6.0681,6.0724,6.0742,6.0774,6.0808,6.0852,6.0874,6.0926,6.0953,6.0993,6.0986,6.0939,6.1088,6.1022,6.1089,6.109,6.1121,6.1119,6.1323,6.1143,6.1143,6.1142,6.1142,0,6.0589,6.0672,6.0673,6.073,6.082,6.081,6.0899,6.0912,6.094,6.0996,6.0968,6.1021,6.1011,6.1063,6.1058,6.1141,6.1154,6.1155,6.1153,6.1157,6.1157,6.1174,6.1164,6.1148,6.1146,6.1145,6.1145,0,6.0743,6.0748,6.0845,6.0876,6.0885,6.095,6.0975,6.1027,6.1032,6.1104,6.112,6.1127,6.1187,6.1185,6.1252,6.1249,6.135,6.1338,6.1339,6.1335,6.1402,6.1395,6.1623,6.1651,6.1455,6.1457,6.1458,0,6.0845,6.0908,6.0946,6.0982,6.1004,6.1063,6.1098,6.1091,6.1128,6.1172,6.1217,6.1275,6.132,6.1416,6.1426,6.1476,6.1464,6.154,6.1471,6.1472,6.1462,6.1458,6.1462,6.1553,6.1555,6.1557,6.1558,0,6.1026,6.1025,6.1078,6.1131,6.1174,6.1215,6.1253,6.1284,6.128,6.1323,6.1384,6.1419,6.1488,6.1544,6.1592,6.1608,6.1582,6.158,6.1598,6.1602,6.1599,6.1599,6.1373,6.1575,6.1573,6.1572,6.1571,6.157,6.1155,6.1208,6.1243,6.1302,6.133,6.1365,6.1415,6.1427,6.1479,6.1535,6.1527,6.1594,6.1625,6.1687,6.1708,6.1759,6.1732,6.1758,6.1764,6.177,6.1777,6.1593,6.1768,6.1767,6.1767,6.1767,6.1766,0,6.1332,6.1353,6.1407,6.1461,6.1507,6.1481,6.1521,6.156,6.1621,6.1653,6.1698,6.1767,6.182,6.1835,6.1886,6.1924,6.1913,6.1937,6.1933,6.1937,6.18,6.1778,6.1945,6.1945,6.1945,6.1945,6.1945,6.1945,6.1429,6.1517,6.152,6.162,6.1639,6.1707,6.1731,6.1763,6.1788,6.1867,6.1912,6.1922,6.1946,6.1998,6.2045,6.2048,6.2067,6.2096,6.2093,6.1965,6.1947,6.193,6.1909,6.2101,6.2101,6.2226,6.2227,6.2228]}]]